Location: Alladorf
(49.9620°N, 11.3790°E)
Time: 20:20:49
(UTC+00:00)

CRYOSAT 2 - Pass Details

Date: 29 November 2020
Orbit: 714 x 724 km, 92.0° (Epoch: 25 January)

Event Time Altitude Azimuth Distance (km) Brightness Sun altitude
Rises 04:26:15 0° 180° (S) 3,108 7.8 -22.1°
Reaches altitude 10° 04:28:31 10° 182° (S) 2,194 6.9 -21.7°
Maximum altitude 04:33:22 71° 267° (W) 761 4.2 -21.0°
Drops below altitude 10° 04:38:16 10° 352° (N) 2,217 6.7 -20.2°
Sets 04:40:34 0° 354° (N) 3,143 7.5 -19.8°
